Wind_Gust
8 15 17 21 19 20 17 20 25 25 23 23 23 24 25 21 21 17 18 17 21 24 25 28 37 36 32 30 26 16 13 38 35 30 25 28 27 30 28 26 26 27 28 24 29 28 29 31 29 27 26 25 21 22 23 22 20 20 22 18 18 17 15 17 19 19 20 20 16 14 16 16 13 15 11 10 8 9 9 9 9 9 9 9 8 7
13 19 21 20 19 20 21 19 20 26 27 25 24 22 26 23 21 20 24 18 19 27 21 30 31 41 34 25 28 30 15 18 34 34 30 31 29 31 31 30 28 27 20 21 21 21 22 25 24 24 25 24 27 24 24 25 24 20 19 20 18 16 16 16 18 17 17 15 18 18 16 13 14 14 15 12 10 10 10 9 8 8 8 8 8 7
18 22 19 21 21 20 21 24 23 22 26 27 27 22 24 26 21 21 24 25 27 23 22 19 40 34 33 30 23 31 34 23 22 28 33 34 31 31 31 31 29 24 22 25 28 27 28 27 26 27 25 27 29 28 28 24 23 21 20 19 18 17 17 15 16 17 15 10 14 15 14 16 13 7 10 11 9 10 11 9 8 8 8 8 7 5
18 18 18 19 21 21 23 23 25 26 25 24 23 23 26 19 21 21 23 21 25 34 16 20 24 32 25 26 33 23 33 32 18 17 23 31 37 32 32 31 30 27 29 29 28 28 28 28 27 24 24 26 24 23 22 24 26 24 21 19 19 19 16 16 16 15 11 12 10 11 14 11 12 12 11 10 8 9 10 10 8 7 9 7 7 6
22 16 15 19 21 21 23 23 24 25 23 19 24 23 23 23 25 25 24 25 20 28 25 22 26 21 19 27 34 32 25 34 30 16 17 26 30 37 32 31 34 33 32 32 29 29 28 27 28 29 29 26 27 28 29 27 27 24 24 22 22 20 18 16 15 15 14 15 13 13 12 10 13 11 11 11 9 9 10 10 8 11 8 7 7 8
23 21 19 21 23 25 25 24 24 21 22 22 20 24 22 19 22 24 26 31 25 27 33 22 34 37 17 35 40 31 35 32 32 25 19 19 25 23 27 30 30 34 35 37 36 35 33 33 29 24 26 28 28 28 27 26 26 22 23 22 20 18 17 19 16 16 17 17 18 19 19 18 16 17 17 19 18 14 13 14 9 8 7 7 8 7
19 14 21 25 21 20 27 26 20 19 21 20 23 18 26 27 24 23 29 28 23 26 28 24 28 31 15 26 36 37 32 32 31 26 29 22 26 30 30 32 33 31 29 31 35 34 33 30 29 29 30 30 28 24 23 23 23 23 23 22 21 21 19 18 16 17 18 17 17 19 19 17 18 19 13 10 11 13 10 10 10 8 7 8 10 8
15 17 16 18 23 25 20 27 25 23 23 27 12 18 20 28 29 30 32 29 25 19 27 23 32 24 20 17 28 37 34 34 32 27 27 30 22 28 28 32 32 33 32 32 32 34 34 34 34 33 32 30 29 25 25 25 23 24 24 23 22 21 20 17 18 18 20 20 17 17 16 16 16 18 17 14 13 10 10 11 10 10 9 9 10 11
13 16 18 21 18 20 20 17 18 24 32 26 16 20 23 21 29 29 31 32 26 18 31 25 20 40 28 18 25 31 38 35 35 32 30 29 29 26 32 32 31 34 34 34 33 34 33 34 34 34 33 27 25 26 29 28 25 24 23 22 20 20 19 18 19 20 18 19 19 19 17 15 12 14 14 12 12 12 11 12 10 11 9 9 8 10
20 18 15 17 20 21 17 22 18 19 27 22 25 23 25 21 20 26 32 31 25 20 29 29 24 31 24 20 18 34 38 39 41 36 33 32 29 26 28 31 29 29 32 33 37 36 34 34 34 33 30 27 29 28 24 23 22 22 21 22 22 21 20 20 20 20 17 16 19 19 16 18 16 14 13 13 15 13 12 13 11 11 11 10 9 9
22 21 25 25 17 18 17 20 21 18 18 17 21 26 27 27 23 19 28 33 26 28 29 27 27 27 28 24 24 31 42 39 37 37 33 31 26 24 25 32 30 30 30 30 31 34 33 33 33 28 30 29 24 23 25 24 23 23 23 23 23 22 20 20 21 20 19 17 18 19 18 19 19 17 18 17 14 14 13 15 12 12 11 10 10 9
20 21 27 23 15 21 16 25 19 16 14 15 26 21 16 22 19 15 18 21 31 27 25 30 31 26 32 20 27 21 21 35 40 36 31 29 32 30 24 31 32 31 30 29 30 30 28 25 23 26 28 27 26 24 25 24 24 23 23 23 23 21 21 21 21 19 20 18 18 16 18 19 20 21 21 21 20 19 18 15 15 11 11 9 9 9
21 20 16 21 17 18 19 17 18 17 16 16 10 13 13 17 19 23 18 30 25 30 23 23 23 29 32 27 23 26 26 28 35 38 37 34 34 32 26 31 31 32 30 31 30 29 28 30 31 28 27 26 25 29 28 28 26 25 23 24 25 23 22 23 21 21 19 18 18 19 18 17 19 20 20 20 19 17 18 17 15 14 13 11 11 10
19 16 18 21 20 17 15 16 14 15 11 16 15 16 14 19 17 15 14 19 15 20 24 25 16 31 9 27 31 35 32 27 28 28 33 36 34 32 28 29 30 31 33 32 32 32 32 32 32 32 32 30 28 27 30 28 27 25 24 24 25 24 22 21 21 21 20 19 18 17 17 18 19 18 19 18 19 16 16 16 16 15 15 14 13 12
9 19 20 18 20 12 19 20 15 15 15 19 18 16 13 18 23 16 17 19 18 17 20 21 29 23 23 15 17 29 30 26 28 29 27 30 31 29 30 31 29 31 30 34 34 33 32 33 32 32 31 30 29 29 29 28 26 24 24 25 25 24 23 23 23 21 21 20 18 17 17 18 17 18 18 17 16 17 16 14 15 13 13 13 11 13
14 22 19 14 17 17 20 18 17 17 20 27 25 18 15 24 14 22 13 14 13 22 26 15 22 15 23 15 24 21 17 22 27 31 24 24 28 32 32 36 33 33 33 33 33 32 32 32 31 30 30 29 28 29 28 28 27 25 26 26 27 28 26 25 23 22 22 19 18 16 17 19 18 16 15 15 14 14 15 15 15 15 14 12 12 10
12 24 9 19 14 12 13 11 18 14 19 11 12 15 17 13 19 20 17 14 9 18 25 17 21 19 19 34 34 23 26 24 21 28 32 28 32 36 35 36 33 33 33 33 32 32 31 28 29 31 31 28 27 29 29 30 29 28 27 26 25 24 23 23 24 22 20 20 18 17 17 18 18 18 17 18 17 16 15 14 14 16 13 13 13 13
9 14 12 15 19 17 11 13 16 17 25 26 22 14 16 15 18 16 17 17 16 16 25 11 12 12 20 30 19 17 18 20 23 23 31 30 34 37 35 36 35 34 33 35 33 33 34 33 32 29 28 28 32 32 29 29 26 26 27 27 28 26 27 25 25 23 22 21 20 18 19 19 19 18 17 17 18 17 18 16 15 14 15 15 15 13
22 23 21 15 18 22 16 15 18 22 21 20 22 8 14 13 17 19 21 14 13 14 17 11 11 23 16 23 15 17 11 12 20 18 27 33 36 37 33 35 39 34 35 37 34 33 33 32 32 30 29 27 27 28 30 30 27 24 22 23 26 27 28 26 24 20 19 19 19 19 20 20 18 17 17 16 17 17 18 18 17 16 16 15 14 15
16 14 17 10 12 10 13 14 19 18 17 21 16 21 12 15 13 10 12 11 13 13 11 18 13 20 16 22 16 21 13 17 28 12 23 32 36 34 34 37 38 34 35 37 33 33 33 32 31 32 30 29 28 26 25 26 25 24 24 24 23 21 20 21 22 22 21 20 19 17 17 17 18 17 18 18 19 18 18 18 17 17 16 17 14 15
7 9 12 11 10 14 16 18 19 14 18 19 16 14 12 14 12 17 19 19 13 13 10 14 15 19 21 17 13 14 15 21 21 16 20 28 32 34 34 38 38 35 35 36 34 32 33 32 30 28 27 28 26 26 26 26 27 25 23 24 24 26 25 26 24 23 21 20 19 19 20 20 18 17 18 18 18 18 17 16 16 17 17 15 15 16
10 8 14 17 19 10 15 14 14 16 15 15 16 17 14 8 8 9 20 18 24 19 17 11 19 22 28 22 12 14 18 24 17 17 23 25 28 32 33 37 36 34 35 35 34 33 33 30 28 26 24 22 25 25 24 25 23 23 24 25 25 25 24 24 25 23 22 20 20 20 20 20 17 19 18 19 19 18 18 17 17 17 17 17 16 17
8 7 8 16 19 22 20 17 19 17 17 18 14 15 13 11 9 12 16 16 17 22 18 20 20 29 28 12 15 18 17 23 22 17 26 31 29 29 34 34 32 37 36 36 36 33 32 31 30 30 28 28 28 27 26 24 25 25 23 24 24 26 25 25 25 22 21 21 21 21 21 20 19 18 19 19 18 19 18 17 17 18 19 18 17 15
9 12 11 19 20 25 26 25 23 22 17 16 18 15 16 16 15 18 25 19 17 19 20 13 20 34 24 18 22 26 30 36 33 20 21 30 34 30 31 30 32 34 36 36 35 30 31 29 28 28 27 27 26 24 25 25 24 23 24 25 25 26 25 24 23 23 22 21 21 21 20 20 19 20 20 20 19 19 18 19 18 17 18 17 16 17
13 8 7 11 10 11 18 12 20 20 24 19 14 18 22 18 16 19 20 17 25 20 17 15 25 33 19 24 26 35 39 42 43 41 30 25 26 32 32 30 33 36 36 35 32 29 27 28 29 30 30 30 27 26 26 24 24 24 24 23 24 24 25 24 23 22 23 22 22 22 23 20 20 21 21 20 19 19 19 19 19 18 18 17 17 15
9 8 9 9 10 9 8 12 22 21 23 19 14 16 19 20 20 18 18 17 22 15 20 21 28 27 27 29 32 34 30 32 34 32 31 30 25 23 24 29 33 36 37 34 30 28 31 32 31 30 29 29 29 29 27 26 25 24 24 25 23 24 24 24 22 22 23 23 24 23 23 22 21 22 22 20 19 20 21 21 19 18 17 18 17 15
12 10 8 9 10 12 12 14 16 12 12 23 18 21 21 17 14 15 10 17 17 12 20 19 21 29 28 29 34 32 31 30 31 28 31 31 26 24 26 26 31 34 34 34 32 32 29 29 31 31 30 30 28 26 27 27 26 25 24 24 22 23 24 24 24 23 24 24 24 23 24 23 22 23 21 20 20 20 20 20 20 19 18 16 17 17
11 10 13 15 17 18 17 17 19 15 12 18 18 17 17 16 14 11 13 18 17 25 22 14 9 19 25 24 24 27 30 30 32 27 30 32 28 27 29 29 24 30 30 30 29 32 34 32 30 30 29 27 27 27 26 26 28 27 26 27 24 23 23 23 24 23 23 24 24 24 23 22 21 21 21 19 19 20 20 20 20 19 18 16 16 16
8 10 10 10 12 15 15 11 15 23 24 16 19 16 16 17 15 19 12 16 14 20 25 19 17 20 21 23 22 24 24 29 33 35 26 26 26 25 28 31 32 31 31 32 32 33 33 33 31 29 28 28 25 26 25 24 23 21 21 22 23 24 25 23 24 24 24 24 24 23 22 21 20 19 19 19 20 20 20 20 19 18 18 17 16 16
11 8 13 12 19 19 14 14 14 14 17 18 16 19 16 19 19 15 18 19 22 20 19 17 17 19 19 24 20 24 27 29 33 31 27 21 22 29 32 36 34 35 34 32 32 31 32 34 32 32 30 27 27 27 26 25 25 25 25 24 23 23 21 24 24 25 25 25 24 22 21 22 20 21 20 20 21 21 20 20 19 19 18 17 17 16
7 15 16 14 17 20 17 21 15 18 14 12 14 14 18 19 16 17 16 17 22 16 16 15 14 21 19 12 20 22 27 29 28 27 25 23 20 31 34 34 35 35 35 33 33 31 29 30 30 30 29 29 29 29 30 28 27 25 24 23 23 24 24 24 24 24 25 24 22 22 22 22 22 22 21 21 20 19 20 19 19 18 17 16 16 16
8 12 10 10 13 17 15 19 18 15 15 14 14 14 17 17 16 14 21 19 15 21 14 14 16 21 21 12 16 21 21 24 26 27 24 22 20 23 30 35 36 35 36 35 33 31 30 29 29 29 30 30 31 30 28 27 25 25 26 25 25 24 23 24 24 24 24 23 22 22 23 22 21 21 21 20 21 20 19 18 18 18 16 15 15 14
11 10 12 8 13 12 11 11 18 14 9 11 18 18 16 14 13 16 20 17 18 10 17 21 21 19 12 11 14 22 23 25 24 21 20 20 22 16 19 32 36 37 36 35 34 31 30 32 32 33 32 31 31 30 28 29 27 27 26 25 24 22 24 24 24 24 24 23 23 23 23 22 23 22 22 21 20 19 20 19 18 18 16 16 15 13
10 15 8 5 14 17 12 18 11 4 8 16 9 7 16 16 14 16 18 17 13 18 20 22 19 7 8 10 10 18 22 26 21 19 20 21 24 20 18 14 26 29 32 33 34 33 32 32 31 33 31 30 29 30 28 27 29 27 25 24 21 23 24 23 23 24 23 23 24 24 23 24 24 23 21 20 19 19 20 20 20 18 17 16 14 16
8 9 8 5 12 16 11 13 15 7 15 11 16 15 13 18 18 18 18 16 19 17 12 13 18 16 16 19 18 19 25 25 24 20 24 23 21 22 27 19 28 16 28 28 27 27 27 29 27 23 22 24 24 23 23 21 20 20 20 22 22 23 23 23 23 23 23 24 24 25 24 24 24 23 21 20 20 20 20 20 19 19 17 18 19 19
13 11 8 7 8 10 11 13 17 15 15 21 22 12 17 12 7 11 14 13 12 15 15 20 19 17 17 19 20 23 24 26 18 18 23 28 23 19 21 26 23 25 16 24 32 31 27 26 28 28 27 24 24 23 24 25 23 24 23 21 23 22 23 23 23 22 23 24 25 25 25 25 23 22 20 20 20 21 20 19 20 20 17 16 15 14
17 9 9 11 8 12 10 9 17 17 19 13 9 11 19 14 15 11 11 20 16 18 13 12 19 17 16 16 27 26 21 17 14 24 25 30 28 19 24 29 34 31 28 20 23 31 31 29 27 27 25 23 25 25 24 23 23 24 22 22 23 24 23 23 24 23 24 25 24 25 25 25 25 22 21 20 20 20 20 19 17 16 16 17 16 16
6 9 11 10 11 10 9 16 17 13 9 15 7 9 12 13 11 13 9 13 11 19 18 14 8 16 17 22 23 24 12 9 16 26 26 27 31 20 16 24 31 30 27 25 20 19 20 21 23 24 27 26 26 26 24 23 25 24 23 23 22 23 23 24 25 23 23 25 25 24 24 25 25 24 22 21 21 19 17 16 17 19 17 20 19 18
16 9 10 8 9 8 9 11 13 9 17 12 18 17 15 21 15 16 11 11 8 17 18 17 17 14 10 14 18 11 8 15 21 22 24 14 18 22 21 23 30 31 28 27 28 24 22 23 26 27 26 26 27 25 24 25 25 25 24 23 23 23 25 25 23 25 25 24 25 25 24 22 24 25 23 21 21 22 21 20 19 17 17 17 17 17
18 15 13 9 8 11 6 11 10 12 18 13 17 19 21 21 19 15 10 12 10 19 17 16 14 16 20 17 14 15 15 16 24 20 14 15 9 16 27 26 24 24 25 24 24 25 26 25 24 23 26 28 29 27 27 26 27 25 25 24 23 23 25 26 24 22 22 23 22 21 23 25 25 25 27 28 27 23 21 18 16 16 17 15 16 16
18 17 11 9 10 7 7 12 13 20 20 11 16 22 25 17 8 7 12 13 20 20 17 17 15 16 19 16 14 18 17 23 22 18 12 8 4 7 12 20 26 25 24 24 25 21 25 29 33 33 32 31 28 27 28 28 27 26 24 24 24 25 23 21 22 25 23 23 23 22 22 21 23 26 22 21 22 20 18 18 19 17 17 17 14 14
9 9 9 6 7 13 7 11 16 17 13 15 22 26 22 12 11 10 16 15 18 20 19 15 16 16 15 15 12 15 20 19 15 15 14 13 12 10 10 14 15 14 17 23 25 26 26 29 28 29 28 26 30 30 29 29 28 26 25 24 25 22 21 22 22 24 24 23 21 22 23 24 22 21 21 18 16 17 17 15 18 20 20 18 17 16
13 18 13 11 13 11 9 10 12 15 13 19 26 26 13 17 12 10 19 23 18 19 18 17 16 16 13 18 19 20 19 18 18 15 13 16 19 17 15 19 19 21 20 18 20 24 30 26 28 29 28 27 28 28 28 28 27 25 24 26 22 20 21 23 23 23 24 24 23 22 23 22 22 20 16 16 17 19 19 17 17 16 16 16 15 16
9 14 14 11 8 14 10 14 12 14 22 19 14 13 17 14 16 16 14 18 19 22 20 21 17 13 17 16 20 23 21 18 21 26 22 23 25 24 23 23 22 22 16 21 27 24 25 29 27 26 24 27 26 26 26 29 28 25 25 23 22 23 22 22 23 23 22 21 22 23 21 18 18 17 16 19 19 19 19 18 17 16 16 17 18 18
9 9 8 13 7 9 15 14 19 18 19 18 13 15 16 17 17 17 13 14 20 22 23 21 18 19 16 19 18 18 16 23 22 24 25 26 27 28 28 26 24 25 24 24 24 23 24 29 28 27 24 25 25 24 25 26 28 24 26 23 22 24 25 25 23 22 21 20 20 20 19 19 19 17 17 18 20 19 18 16 16 16 13 15 15 16
11 13 8 7 14 11 20 25 25 20 19 19 14 13 17 19 22 19 18 18 13 16 22 24 21 21 18 16 16 11 11 13 16 26 29 30 28 30 32 31 30 31 29 27 22 24 25 26 26 27 27 24 24 23 23 24 28 29 23 22 22 24 24 25 25 22 21 21 21 21 20 18 15 14 15 16 17 19 19 21 19 18 16 15 16 16
11 12 10 11 7 11 24 13 15 17 14 15 16 17 23 18 17 20 21 17 15 18 24 26 25 21 17 15 13 11 13 12 18 18 16 24 31 31 34 30 27 26 26 24 27 28 25 25 26 26 26 26 21 23 22 21 22 24 24 23 22 22 23 23 22 20 20 21 19 17 18 19 17 15 14 13 12 12 13 14 15 16 17 17 18 16
15 10 9 14 13 10 20 23 23 12 15 18 11 10 21 21 20 19 17 16 15 15 25 28 27 23 19 14 12 10 11 12 16 15 15 13 17 26 27 25 26 30 25 23 26 27 26 25 23 22 21 21 20 23 21 21 21 23 24 24 25 23 23 23 22 23 20 20 18 17 17 17 14 17 16 15 16 16 13 12 14 18 20 21 21 20
22 12 15 13 17 19 18 16 12 14 11 5 3 8 14 16 18 24 23 21 18 20 22 22 23 23 18 15 12 11 15 13 13 15 15 10 19 22 19 19 23 25 19 17 23 21 23 23 24 22 24 22 21 20 21 20 22 24 25 24 22 23 23 21 19 20 19 18 17 15 14 16 18 17 16 14 13 13 17 22 21 20 16 10 15 21
12 12 9 10 16 18 13 24 13 21 23 23 10 8 16 17 16 18 24 24 22 21 21 20 21 18 17 16 14 14 13 13 14 18 20 15 15 21 20 23 21 17 19 29 27 20 17 20 23 21 19 19 20 19 20 21 19 21 23 23 23 23 23 21 20 18 18 16 16 15 15 14 15 14 15 15 14 13 8 9 7 7 12 14 11 12
17 20 17 20 19 25 21 22 12 10 16 20 19 10 8 12 17 19 20 23 23 19 21 21 23 20 16 15 11 13 12 13 10 14 19 18 18 15 17 21 21 19 16 15 23 22 20 16 19 18 16 16 19 19 19 16 18 18 17 20 21 23 24 22 20 17 16 16 16 17 18 17 15 14 14 13 14 12 12 9 9 6 9 10 10 12
Wind_Speed
1 5 8 10 8 5 6 6 9 11 12 11 12 12 12 10 11 10 12 8 10 11 13 13 18 22 17 19 17 10 8 22 14 11 14 17 15 15 15 14 15 16 17 12 11 16 20 20 18 16 15 15 14 14 14 14 13 13 13 11 11 9 9 9 10 9 10 9 8 7 9 8 7 7 6 6 5 5 5 5 5 5 5 4 4 4
1 6 11 10 7 8 9 8 7 10 12 13 12 12 13 12 11 10 11 11 8 8 11 10 16 23 19 14 15 14 7 12 21 14 16 17 17 16 18 17 16 16 11 11 9 8 7 13 15 14 13 14 16 14 15 16 15 13 13 13 11 8 9 9 10 9 9 8 8 8 8 6 7 7 7 7 6 6 6 5 5 4 4 4 4 4
6 10 9 5 9 11 10 9 10 12 12 11 11 11 12 12 9 13 14 16 15 9 9 10 12 16 20 16 12 16 15 9 13 10 18 20 18 16 17 18 17 14 13 12 13 14 14 15 16 16 15 16 18 18 18 16 15 14 12 11 10 9 9 8 9 9 8 5 7 7 5 7 4 1 4 6 5 6 6 5 5 4 4 4 3 3
7 9 10 9 7 9 10 10 11 12 13 11 8 9 11 8 8 8 11 14 15 8 7 11 14 12 9 13 16 13 17 14 9 8 15 18 22 19 19 18 18 17 15 16 16 16 16 17 16 15 14 15 13 14 13 15 17 13 12 12 12 11 9 8 8 9 6 7 5 5 8 5 6 5 4 4 5 5 6 6 5 4 4 4 3 2
12 9 4 6 9 10 11 11 11 10 10 10 12 11 9 11 11 10 10 13 11 13 10 11 12 10 5 6 10 13 14 15 13 9 10 18 18 21 19 20 21 21 19 19 18 18 18 17 17 18 18 15 15 17 17 16 16 12 15 14 14 12 11 9 9 9 8 8 6 6 6 5 6 5 5 5 5 5 6 6 5 6 4 4 4 3
13 9 8 11 9 8 9 10 12 11 10 10 12 12 12 12 11 12 13 16 9 10 11 5 6 10 4 9 13 11 14 18 19 15 11 13 16 15 17 20 19 21 22 23 23 21 20 20 18 15 15 17 17 17 16 16 15 14 14 14 13 10 10 11 10 10 10 9 10 9 10 9 7 8 8 10 9 7 7 7 5 4 3 3 3 3
7 4 8 11 11 11 11 11 11 10 10 9 8 9 14 15 14 13 14 13 10 9 13 5 7 7 3 9 10 11 14 19 18 16 13 12 17 18 16 17 18 18 17 19 22 22 21 19 18 18 18 19 17 14 14 14 14 15 14 14 13 12 10 10 10 11 10 10 9 12 11 9 9 9 5 5 6 7 6 6 6 5 3 4 5 3
5 7 8 8 9 10 8 10 11 11 10 10 7 10 11 14 14 14 15 15 10 7 14 12 5 6 6 6 9 14 17 19 20 17 11 12 13 19 18 19 19 19 19 18 19 20 22 22 22 21 21 18 17 15 15 15 14 16 16 15 14 12 12 10 10 11 11 11 10 10 9 8 9 10 9 8 7 5 6 6 6 5 4 5 5 6
3 3 2 4 3 5 7 7 8 9 10 9 11 14 14 12 12 14 13 13 11 10 14 12 4 7 5 8 7 12 16 20 21 19 16 13 13 17 21 20 20 20 20 21 20 20 20 20 21 21 21 17 14 15 17 16 15 14 14 14 13 12 12 10 13 12 11 11 10 10 9 8 7 8 8 7 7 7 6 7 6 6 5 5 4 5
2 3 6 6 7 9 7 6 5 3 6 10 15 12 11 11 8 6 7 10 12 7 13 15 6 5 5 5 7 5 14 16 16 19 19 18 15 13 16 20 18 16 17 21 24 23 22 22 22 21 19 16 17 16 16 15 13 13 13 14 14 13 12 11 13 12 11 10 10 10 9 10 8 7 7 7 8 7 7 8 7 6 6 6 5 5
5 7 9 8 7 5 4 7 10 11 11 11 10 13 15 13 11 9 8 6 8 9 12 18 11 5 7 7 8 5 7 11 13 14 15 17 16 11 12 18 18 17 17 17 19 21 22 21 21 18 16 16 14 13 15 15 14 13 14 14 15 14 11 12 13 13 12 10 10 10 11 12 12 10 10 9 8 8 7 8 7 7 6 6 6 5
8 9 6 4 6 6 5 9 8 5 7 7 4 4 6 10 6 5 3 3 6 7 10 17 13 10 9 8 8 7 7 13 15 15 16 17 17 13 13 15 16 19 18 18 17 17 18 16 13 12 14 14 15 14 15 14 14 14 14 14 15 13 13 13 13 12 12 11 11 9 11 12 12 12 11 12 12 11 11 9 8 6 6 6 6 5
9 8 6 12 8 9 5 6 8 7 3 6 3 3 3 3 3 4 4 7 6 8 6 12 10 8 12 9 11 13 11 11 14 17 19 19 18 14 14 16 15 16 18 19 18 17 16 16 16 14 14 14 15 16 18 17 15 15 14 16 16 15 14 14 13 13 12 11 11 11 11 11 11 12 12 12 11 10 10 9 9 8 7 6 6 6
7 8 11 9 9 6 7 7 3 4 2 3 5 2 2 1 1 3 3 2 4 4 10 12 8 11 1 8 19 22 21 14 13 15 18 18 18 15 14 14 14 16 19 19 19 19 18 17 17 18 18 17 16 17 17 17 16 14 14 15 16 16 14 13 13 13 13 12 11 10 10 10 10 11 11 10 10 9 9 9 9 8 8 8 7 7
4 6 8 9 6 5 8 10 7 6 3 6 2 2 4 1 2 4 4 4 4 6 9 10 9 4 12 3 5 13 15 13 12 14 14 19 20 17 15 15 16 19 19 20 20 20 19 20 20 18 18 17 17 17 17 15 15 14 14 15 16 15 15 15 15 13 14 12 11 10 10 10 9 10 9 9 9 9 9 8 8 7 7 7 7 7
9 8 9 6 7 9 9 6 4 4 3 7 5 2 1 5 4 6 2 2 2 7 8 3 4 7 9 4 13 12 5 5 8 12 15 13 13 14 16 17 17 18 19 19 20 20 21 20 19 17 17 16 16 18 16 17 16 15 15 17 18 18 17 16 15 14 14 12 10 10 10 10 10 8 8 7 7 7 8 8 9 8 7 7 7 6
2 8 4 8 7 4 7 2 3 3 5 3 1 4 5 5 6 4 3 1 1 2 8 3 8 3 3 7 9 11 7 11 8 12 15 16 16 14 17 16 15 16 18 19 19 19 20 17 18 18 18 16 16 16 17 18 18 18 17 16 16 15 14 15 15 14 12 12 11 11 10 10 10 10 10 10 10 9 7 8 7 8 7 6 7 6
4 6 4 3 10 9 3 4 6 5 4 1 4 6 6 6 4 1 3 1 0 4 6 4 6 4 7 8 6 11 12 12 9 11 17 19 17 18 18 17 17 19 20 21 20 20 21 20 20 18 17 18 20 21 19 19 16 16 16 18 18 17 17 16 16 15 13 13 13 11 12 11 11 10 10 9 10 9 8 7 7 7 7 7 6 7
3 7 8 8 10 8 7 3 5 5 5 7 8 0 3 2 2 5 0 1 1 4 4 4 6 6 8 9 4 2 4 7 8 12 17 15 16 20 19 17 18 20 19 18 19 18 19 19 19 18 18 18 18 18 19 18 16 15 14 15 16 18 18 17 14 12 11 11 10 10 11 12 10 9 9 8 9 9 9 9 9 9 8 7 7 7
2 2 6 5 2 4 5 1 4 8 4 4 1 3 1 4 4 3 2 1 3 3 2 6 1 4 5 8 7 9 6 5 8 8 8 11 15 17 17 16 18 18 17 18 18 18 19 19 20 21 19 18 18 17 14 14 13 15 14 15 14 13 12 13 14 13 13 12 11 10 10 11 10 10 10 9 10 9 9 9 9 9 9 9 7 8
1 4 4 5 3 5 4 2 6 6 5 2 1 1 1 3 4 3 2 2 3 2 2 3 4 5 6 3 5 6 5 6 6 8 8 9 12 16 17 18 19 19 17 18 19 19 20 20 19 18 17 17 16 16 15 16 16 15 13 15 15 16 16 16 15 14 13 11 11 12 13 12 11 11 9 10 10 10 9 9 9 9 9 8 8 8
1 1 5 6 5 4 7 5 4 4 5 3 7 7 7 3 1 0 7 2 3 3 3 3 7 7 8 2 1 3 5 7 9 8 11 10 15 15 16 18 20 18 18 20 21 21 20 19 18 15 14 13 15 15 15 15 13 13 15 15 15 14 14 15 14 14 13 12 10 11 12 13 10 10 9 10 10 10 9 9 9 9 9 10 9 9
2 0 2 7 7 9 11 11 8 9 6 8 7 6 7 3 3 2 3 6 3 3 6 7 8 11 2 3 3 6 7 10 9 9 11 13 13 17 19 19 20 22 22 22 23 20 19 18 17 17 18 18 18 17 16 15 15 15 15 15 14 15 15 15 14 13 12 12 11 11 11 11 11 11 12 12 10 11 10 9 9 9 11 10 9 8
3 1 3 7 8 13 16 15 14 13 11 7 5 4 6 7 7 6 5 3 1 7 5 4 5 9 2 11 13 15 14 15 13 11 11 14 12 16 19 18 19 17 22 23 20 17 16 16 15 15 16 16 15 15 16 15 14 13 13 14 14 16 15 14 13 12 13 12 12 12 11 12 11 12 12 12 11 12 11 10 10 9 10 10 9 9
2 2 3 4 3 2 4 2 1 3 4 3 3 4 7 5 7 4 2 3 1 6 10 7 8 9 4 13 14 15 17 17 18 18 17 10 15 14 15 16 17 18 18 19 18 16 15 15 16 16 17 17 16 15 15 14 14 14 14 13 14 14 15 14 13 13 13 13 13 13 13 12 12 13 13 12 11 12 12 12 11 9 10 10 9 9
1 2 2 4 1 3 0 1 3 4 7 3 4 5 9 8 6 3 1 1 2 3 5 4 9 11 12 11 13 15 15 17 17 18 17 17 11 15 14 17 19 19 20 20 18 17 19 18 17 17 17 16 17 16 15 15 15 15 14 15 14 14 14 14 13 13 13 13 14 13 14 13 12 13 13 12 11 13 12 12 11 10 9 10 10 9
3 2 3 5 3 4 4 6 6 2 2 6 7 8 5 9 7 5 3 4 6 5 7 8 9 15 17 12 12 14 12 14 17 17 19 17 18 11 11 15 18 20 21 21 19 18 17 17 20 19 19 18 17 16 15 16 16 15 15 15 14 14 14 14 14 14 14 14 14 13 14 14 13 12 12 12 11 11 11 12 12 11 11 9 10 10
2 3 8 7 8 11 8 10 10 8 4 3 5 5 5 5 5 5 5 6 4 4 10 4 4 8 14 12 11 13 13 12 12 15 18 18 17 9 10 13 16 16 17 17 17 18 20 19 19 19 19 18 16 16 16 15 16 16 16 16 14 14 13 12 13 14 14 14 14 14 14 13 12 12 12 11 11 12 12 11 12 11 10 9 10 10
2 1 3 3 5 8 10 8 6 4 4 3 4 5 7 8 6 6 3 6 5 6 11 12 7 7 12 10 9 11 10 10 11 14 15 16 13 9 4 16 17 19 18 19 18 19 20 20 19 19 18 17 16 17 16 14 13 13 12 13 14 14 15 14 14 14 14 14 14 14 12 11 11 11 11 11 12 12 12 12 11 11 10 10 9 8
1 3 2 3 4 5 5 3 3 6 2 3 3 7 9 9 9 8 10 9 11 11 12 11 7 11 10 7 10 12 9 8 11 10 12 14 13 6 6 12 17 17 19 19 19 20 20 21 20 20 19 17 18 17 16 15 14 15 15 14 14 14 13 13 14 15 14 14 14 12 12 11 11 11 11 12 13 12 12 11 11 11 11 11 10 9
3 4 2 3 5 4 4 6 10 12 7 5 6 3 8 9 10 12 9 8 9 9 11 11 9 11 6 3 4 6 9 9 12 14 15 13 11 7 11 14 15 18 19 19 19 20 19 19 19 19 19 19 19 19 17 16 16 15 15 14 14 14 13 14 14 14 15 14 13 12 12 12 12 12 12 12 12 11 12 12 11 10 10 10 10 10
2 4 0 0 1 4 5 9 10 10 10 10 3 2 3 8 8 5 4 6 6 12 10 4 6 8 11 4 5 6 12 12 13 14 14 12 10 7 13 15 17 19 17 18 18 17 17 18 18 19 20 20 20 19 17 16 15 15 16 15 15 14 13 14 14 14 14 14 13 13 13 12 13 12 12 12 12 12 11 11 11 11 10 9 9 8
4 2 2 2 6 4 5 6 11 7 1 0 2 4 6 6 6 4 8 8 11 6 3 4 7 8 4 3 5 8 10 13 13 10 12 12 10 9 6 15 20 18 19 20 19 18 18 19 19 21 21 20 19 18 18 18 16 16 15 15 14 13 14 14 14 14 14 14 14 13 13 13 14 13 12 12 12 11 10 11 11 10 10 10 9 8
3 2 2 2 1 5 6 11 5 2 2 3 3 2 2 5 7 8 7 9 8 6 6 9 9 4 3 3 4 6 8 13 10 11 12 8 9 10 9 5 3 7 18 19 20 21 20 18 18 19 20 20 19 19 17 16 17 16 15 14 13 14 14 14 13 14 14 14 14 14 14 14 14 14 12 12 11 11 11 11 11 10 9 8 8 9
4 2 2 2 1 5 3 7 7 2 2 4 3 7 6 5 4 5 8 7 7 7 7 6 3 6 5 5 3 5 8 12 15 11 14 12 4 5 10 8 3 6 1 7 13 16 18 18 16 14 13 12 14 13 12 12 11 11 12 13 13 13 14 14 14 13 13 14 14 14 14 14 14 14 12 12 11 11 11 11 10 10 10 9 10 11
5 4 1 1 2 2 3 4 4 4 7 11 6 3 9 5 5 7 6 2 1 5 8 10 11 10 8 6 1 9 11 13 11 10 12 14 10 5 8 8 1 1 6 10 11 13 12 13 15 17 17 14 13 12 13 14 13 14 13 13 13 13 14 14 14 13 13 14 14 15 14 14 13 13 12 12 11 12 11 10 11 11 9 9 8 8
3 2 1 4 2 2 2 1 5 6 8 7 3 5 6 4 5 4 0 8 3 6 7 6 4 5 9 11 7 12 13 5 5 11 12 14 17 9 11 13 13 13 7 5 13 13 15 15 15 15 14 14 15 15 14 13 13 13 13 13 13 13 13 14 14 14 14 14 14 15 15 15 15 13 13 12 12 11 11 10 10 9 8 10 9 9
3 3 5 1 2 2 2 6 4 5 1 4 2 3 1 7 4 6 3 5 1 7 5 7 4 4 5 3 10 15 7 0 7 12 16 17 20 14 11 12 12 11 12 9 5 9 10 11 11 11 14 16 17 17 14 14 15 14 14 13 13 14 13 15 15 14 14 14 15 14 14 14 14 15 13 13 13 11 10 9 9 10 9 11 11 10
8 1 2 2 1 2 1 2 1 2 5 5 3 1 2 11 6 4 2 6 1 9 8 5 4 3 2 2 4 5 0 6 11 12 13 9 12 14 12 13 13 14 15 16 18 16 12 13 15 15 14 15 16 15 15 16 17 15 14 14 14 14 15 15 14 15 15 14 15 14 13 13 14 14 14 13 13 13 13 12 11 9 9 9 9 10
10 8 7 4 2 1 0 2 2 3 3 3 6 11 9 10 8 7 3 3 2 12 10 8 9 9 6 4 4 3 5 9 12 10 10 10 6 11 16 16 14 13 14 12 11 14 16 15 14 13 15 17 18 17 17 17 16 16 15 14 14 14 15 15 14 12 13 13 13 13 13 14 16 15 16 17 15 12 11 9 8 9 10 8 9 8
7 6 5 4 2 2 2 3 2 3 3 2 6 13 15 9 1 1 3 3 10 12 10 8 10 10 3 6 3 3 7 12 12 9 8 6 1 4 9 13 16 16 15 15 15 14 13 15 18 19 20 18 17 16 17 17 16 15 15 15 14 16 14 12 13 13 12 11 11 11 12 12 14 14 12 12 12 11 9 9 10 10 10 9 8 8
2 2 3 2 3 4 2 3 4 5 3 4 10 12 11 3 3 4 6 7 11 12 12 10 8 8 7 4 3 5 10 13 8 4 6 7 5 2 7 10 10 9 10 15 17 15 13 15 17 19 18 16 18 18 17 17 17 16 15 14 15 13 11 12 13 13 13 12 12 13 13 13 11 11 11 9 9 9 9 8 10 11 11 9 9 10
3 4 5 4 3 2 1 3 4 5 2 9 15 8 3 3 5 5 10 13 10 12 12 11 8 8 5 8 8 7 9 12 6 7 5 9 8 9 9 5 2 13 13 7 6 11 16 15 16 17 18 15 17 17 17 18 18 16 15 16 14 11 12 13 13 13 13 14 13 12 12 12 14 12 8 9 10 11 10 8 9 9 9 9 8 9
1 2 3 2 1 5 3 3 2 4 10 10 6 5 5 2 5 6 7 9 10 10 10 8 10 7 7 4 8 10 9 10 6 6 7 6 6 5 5 6 9 14 7 9 16 15 15 16 16 16 15 14 15 16 16 18 17 15 15 14 11 12 12 13 13 12 13 12 12 12 11 11 11 10 9 11 11 11 11 10 9 9 8 9 9 9
3 3 2 4 1 1 4 5 10 10 9 10 7 8 9 9 3 4 6 8 9 9 5 8 10 11 8 7 6 4 6 7 6 2 6 2 3 5 6 6 7 9 11 12 7 12 13 16 16 15 14 14 16 15 15 15 17 16 15 11 12 14 13 13 13 13 12 12 11 12 11 11 11 10 10 9 11 11 10 9 9 8 6 8 8 8
6 2 3 2 4 6 10 14 14 11 11 12 8 7 8 10 7 4 4 8 7 7 7 8 10 10 10 6 6 3 2 7 6 3 3 1 2 4 4 6 7 9 11 13 14 6 8 12 15 16 16 14 15 14 14 14 17 19 14 13 13 13 14 13 12 12 12 11 10 10 10 9 9 8 8 9 8 9 10 11 9 9 7 7 7 8
6 0 1 2 3 5 7 4 2 8 8 9 9 7 7 7 7 7 6 6 7 9 11 11 9 10 8 9 4 1 4 7 3 2 2 4 7 6 6 6 8 9 10 11 10 13 7 10 13 14 17 16 14 13 12 13 12 14 15 14 13 13 14 14 13 11 10 10 8 8 9 10 8 7 6 6 5 5 6 6 8 8 8 8 8 8
6 0 2 4 4 1 7 15 15 7 8 11 6 6 7 8 10 9 7 5 5 7 6 10 11 11 9 9 6 3 6 5 2 1 3 5 5 6 7 8 7 9 8 10 10 8 11 10 1 9 9 8 7 10 8 8 9 12 14 14 15 14 14 14 14 13 12 12 10 9 9 8 10 10 8 7 7 7 6 5 7 9 10 10 10 9
10 6 6 1 3 7 9 10 5 8 6 2 1 6 8 8 9 11 10 8 7 11 10 8 7 8 8 9 8 6 6 1 1 3 4 4 5 6 8 9 9 8 7 10 8 8 6 6 8 8 9 8 8 10 11 12 11 13 16 14 13 14 14 13 13 12 11 9 9 8 7 8 8 8 8 7 6 6 8 10 10 9 8 6 8 11
6 5 3 3 6 8 5 12 8 8 9 12 5 3 10 11 11 10 11 11 9 10 11 12 14 11 10 8 9 9 8 2 1 2 5 5 5 5 7 8 8 9 9 7 10 10 8 6 5 5 2 3 3 6 4 5 9 12 13 13 13 13 14 13 12 11 10 9 8 7 8 7 7 7 8 8 8 7 4 8 6 4 6 7 5 5
5 7 6 8 8 11 13 15 7 5 10 11 12 3 4 7 11 11 11 10 11 10 10 12 12 13 10 9 7 7 6 2 0 2 6 6 6 4 4 5 6 8 9 10 10 11 10 9 5 4 5 4 6 7 6 5 5 8 10 12 12 14 13 13 11 10 9 9 8 10 9 9 8 7 7 7 7 6 7 5 5 6 8 7 7 8
Wind_Direction
190 206 219 224 233 229 240 229 233 241 245 259 269 273 270 269 269 271 270 265 232 246 238 232 241 248 241 228 226 236 228 230 205 161 180 181 182 181 186 189 185 189 196 196 192 179 170 165 168 167 167 165 164 164 163 163 165 165 165 164 170 170 166 163 161 165 161 156 146 147 162 158 166 163 154 145 144 146 150 153 157 151 162 173 173 170
180 225 235 230 225 225 231 232 245 252 251 249 254 260 268 265 266 267 273 277 272 236 244 230 236 245 240 236 224 225 215 224 224 175 178 183 183 185 184 186 186 193 194 178 166 181 173 161 159 162 165 160 161 173 166 167 167 167 166 167 167 166 170 171 166 163 164 165 168 159 164 148 162 159 158 152 153 152 145 147 154 157 166 174 173 167
260 246 248 231 231 229 228 226 229 242 253 247 246 251 260 263 277 277 276 277 279 280 258 251 242 243 243 232 228 217 223 216 229 190 180 179 190 190 185 183 186 184 183 180 173 173 175 170 164 165 172 176 172 167 168 164 162 166 165 167 165 170 171 175 169 161 161 152 151 152 154 146 143 211 154 143 146 143 143 150 154 159 171 167 170 170
250 250 250 237 231 237 239 231 233 239 245 251 253 246 248 261 258 274 267 271 271 257 273 268 255 257 254 238 225 218 219 224 221 197 179 187 189 190 188 185 182 183 177 177 175 178 178 173 168 167 173 175 166 166 165 166 167 166 165 166 169 172 171 171 174 159 142 143 137 134 137 142 144 161 148 121 126 128 133 149 153 167 172 168 161 166
229 238 235 217 224 220 234 232 229 235 245 242 242 249 253 246 245 248 274 278 286 283 274 289 283 261 217 230 231 219 216 227 224 213 164 194 193 191 190 188 182 179 178 178 178 180 177 173 172 174 177 169 171 174 172 168 169 169 167 169 172 170 170 169 167 152 139 130 121 116 104 108 94 89 116 125 138 151 153 142 158 179 174 161 158 154
251 241 242 253 246 233 233 239 230 226 241 249 243 239 247 252 249 250 259 270 276 287 263 233 283 263 204 221 220 212 212 220 228 218 194 175 201 205 194 190 190 183 177 176 177 179 179 176 176 174 171 176 180 178 172 167 168 164 166 166 169 164 166 171 165 152 147 153 150 150 151 157 154 155 164 172 167 161 166 170 167 166 159 151 144 141
249 213 226 242 244 242 238 243 240 222 242 243 244 227 237 245 248 248 251 256 256 249 276 219 219 278 266 216 224 217 212 217 228 225 213 184 185 193 196 195 192 187 185 179 175 176 176 177 171 174 179 183 180 173 163 165 167 166 166 168 167 167 169 166 159 159 153 157 165 169 171 167 165 160 174 163 159 160 159 144 156 150 134 146 136 125
198 223 224 231 245 244 240 243 242 226 236 247 247 240 236 235 237 241 243 249 256 267 270 267 231 257 280 269 219 210 212 216 220 226 211 205 177 187 194 193 192 188 181 177 180 179 177 174 173 177 186 184 177 164 163 167 167 167 169 169 169 168 167 165 159 165 165 165 170 171 171 168 166 168 168 166 159 150 142 138 135 131 138 139 133 127
16 318 241 276 276 248 237 234 245 216 226 243 240 240 246 245 240 238 235 245 244 242 263 263 248 271 261 271 268 210 204 211 214 219 218 206 193 189 188 194 193 186 181 175 176 179 179 178 179 181 183 181 162 163 169 170 169 167 168 167 165 168 166 164 164 166 171 168 170 170 167 168 173 160 155 149 148 145 140 132 133 131 131 119 119 127
253 274 297 287 277 271 262 272 284 298 261 244 249 246 247 248 247 245 249 243 247 220 246 258 212 245 271 259 278 249 210 205 209 213 218 213 199 191 191 189 189 186 182 180 177 178 180 180 183 186 180 165 171 172 166 164 162 165 165 166 168 169 168 165 168 168 168 166 165 169 172 167 164 154 143 150 153 146 144 139 142 135 134 134 123 122
301 308 306 282 256 258 263 267 275 276 259 274 278 252 246 247 247 253 243 239 267 231 236 250 236 199 267 246 242 243 231 210 204 214 215 217 211 178 185 191 181 181 183 183 182 180 180 182 183 179 171 173 167 163 164 164 165 166 168 168 171 171 165 164 170 170 169 168 172 173 172 170 167 161 154 154 153 146 148 148 148 145 142 138 136 131
308 296 278 270 272 260 245 271 260 261 280 290 283 268 251 255 246 244 255 209 236 247 220 242 238 197 242 270 270 249 255 234 214 216 218 217 214 186 187 192 183 177 179 180 180 183 182 180 179 170 168 168 168 163 165 167 168 169 170 170 169 168 167 168 170 171 170 171 176 174 173 173 171 164 165 165 164 165 161 155 151 147 132 133 133 132
287 262 274 277 273 266 258 259 267 265 272 286 291 305 227 256 211 252 205 235 232 246 231 245 235 228 227 244 269 265 249 248 230 213 214 212 212 195 189 191 180 179 175 176 179 178 179 176 171 174 175 171 169 171 171 171 171 170 171 171 168 172 169 170 169 173 172 173 178 177 176 174 171 171 169 168 166 166 161 159 152 150 145 142 136 149
278 277 267 276 296 242 237 238 259 320 259 233 251 246 172 219 259 246 253 216 237 271 249 244 226 239 211 225 231 248 256 238 236 224 205 201 202 197 190 191 179 177 175 177 177 179 178 177 177 176 175 177 177 175 172 172 172 173 171 171 171 172 170 167 169 171 173 178 179 176 175 174 171 172 171 169 166 167 163 161 157 155 154 156 156 154
306 314 262 223 249 220 217 219 213 203 252 261 195 250 260 272 187 219 228 239 229 227 265 235 225 187 211 237 232 222 234 233 228 229 219 202 199 198 193 192 181 178 179 176 178 179 179 178 176 177 178 179 178 174 173 173 175 170 171 172 172 169 172 170 171 170 174 179 177 175 175 172 171 169 169 168 166 161 159 159 151 149 150 151 156 156
227 243 261 257 255 292 284 273 211 207 269 251 234 182 280 262 259 247 203 118 275 307 311 306 217 168 215 215 252 260 270 283 251 231 222 215 202 190 196 194 186 183 178 177 178 180 179 177 178 178 178 179 176 174 174 175 174 173 175 176 176 174 172 170 169 173 175 176 174 173 172 174 169 165 162 157 158 160 158 155 152 153 156 152 146 146
215 248 235 271 285 248 274 299 306 155 206 269 53 192 202 242 214 239 332 242 135 6 265 234 268 276 341 271 238 248 257 269 254 233 218 206 197 185 194 196 182 178 177 180 181 179 177 178 180 179 179 177 174 174 178 179 177 176 173 175 175 170 167 169 171 171 173 171 172 175 171 169 169 168 167 166 163 160 157 151 151 153 153 142 146 147
168 255 285 317 292 291 235 271 258 236 251 245 280 250 301 305 218 145 208 317 69 240 268 262 235 192 194 248 258 250 253 252 247 232 219 204 192 187 195 191 180 179 182 182 179 175 174 177 181 184 182 177 176 178 178 179 178 176 175 175 172 169 170 172 170 172 173 173 172 171 173 174 173 170 167 163 162 157 152 150 145 141 145 156 154 148
116 291 279 237 237 267 307 320 320 272 167 179 225 100 341 12 316 310 203 296 299 276 275 287 220 216 191 243 301 291 216 248 236 230 216 203 189 191 196 183 182 181 179 177 176 174 177 181 182 181 180 183 180 177 177 176 172 173 176 176 173 172 173 170 168 167 168 170 171 172 173 173 172 170 167 164 159 158 158 157 156 157 155 147 151 148
104 164 291 304 160 335 332 39 243 267 303 237 268 298 134 104 177 214 215 188 117 256 358 290 333 237 211 229 242 257 260 242 246 230 230 195 193 195 191 176 180 182 179 175 173 177 181 183 183 181 179 174 173 174 175 173 174 176 175 169 169 166 161 161 165 167 171 173 169 168 168 173 172 170 168 167 163 165 164 161 158 155 156 161 155 155
213 174 266 277 340 13 324 224 233 215 224 268 132 243 163 190 227 156 273 174 189 196 216 274 318 277 252 227 244 264 280 287 253 250 216 200 202 197 190 179 181 181 177 174 176 181 184 183 182 180 175 172 169 169 170 175 179 176 170 171 168 165 166 170 171 169 170 169 172 167 170 171 170 169 167 166 169 165 164 161 160 161 160 152 162 158
113 202 245 308 332 257 240 241 269 253 230 195 168 200 190 157 303 299 274 289 236 212 215 247 255 256 257 259 347 340 319 337 316 285 254 219 196 199 197 187 180 179 175 174 180 183 182 180 176 170 165 163 163 167 174 179 174 172 175 172 167 166 171 170 169 171 166 171 171 171 169 169 168 165 165 166 168 166 163 162 162 159 157 164 164 163
100 340 249 263 249 256 256 251 251 264 252 231 177 212 173 159 140 138 210 276 335 273 340 290 276 265 234 87 93 341 345 342 323 312 276 246 214 197 195 191 183 175 173 180 183 182 177 172 170 167 164 164 168 173 175 174 178 178 174 169 169 169 173 173 172 168 165 168 172 173 169 167 167 165 166 167 168 167 162 160 158 160 161 163 163 165
90 245 251 266 283 275 270 268 263 264 266 259 231 175 161 188 194 188 186 173 347 312 333 322 273 265 241 7 2 352 350 344 338 339 310 250 233 207 198 185 181 178 178 179 179 173 169 166 163 161 162 164 169 171 174 178 180 174 172 172 171 173 171 170 168 167 166 169 172 171 169 171 168 167 168 170 170 168 161 157 160 163 162 161 160 162
128 180 207 295 315 312 328 17 195 219 218 228 215 200 188 187 189 185 95 91 301 253 245 284 268 276 322 357 344 347 347 342 334 330 338 308 232 209 192 173 173 172 173 174 170 164 160 161 164 165 166 169 172 174 174 174 175 174 174 173 174 174 170 169 169 168 167 169 171 173 174 174 172 172 173 171 170 166 159 159 159 164 162 158 162 162
132 172 135 276 26 70 108 257 235 236 218 213 236 209 197 185 177 122 240 125 236 269 268 239 273 282 304 325 337 339 341 336 328 331 329 342 264 218 182 169 168 168 172 171 164 158 164 167 168 168 170 172 172 171 173 174 174 173 173 176 174 172 171 171 168 167 167 170 173 177 177 177 175 175 174 170 167 163 161 160 161 163 164 163 161 159
160 196 201 212 205 182 216 235 238 237 234 218 224 213 200 194 194 190 121 161 222 277 277 259 265 297 313 340 335 328 334 329 328 324 331 326 325 247 174 167 167 169 170 166 165 167 165 167 171 172 172 173 172 173 174 173 172 171 171 174 174 174 172 170 167 166 169 173 175 178 180 178 178 173 171 168 163 160 161 162 164 163 165 166 160 159
143 178 213 217 227 240 231 244 251 265 256 227 204 217 189 185 184 188 176 219 201 261 278 274 268 298 299 313 315 318 320 325 316 322 321 326 321 290 184 158 157 159 163 164 162 162 168 170 170 171 174 172 173 173 174 176 173 169 170 173 173 171 171 170 167 166 171 173 175 179 180 178 173 170 168 163 159 161 162 163 165 166 161 158 160 164
183 246 241 164 231 260 264 259 275 245 220 223 224 204 198 211 214 207 208 220 234 236 252 268 272 286 291 292 293 293 304 306 309 308 310 307 298 305 219 155 160 163 165 166 167 171 169 169 172 172 172 173 171 171 172 172 171 167 169 172 172 171 174 169 167 168 171 174 177 178 175 170 168 165 162 161 160 162 164 164 164 161 160 160 162 167
25 250 263 275 304 274 279 276 307 314 294 276 218 219 215 205 212 204 224 231 232 237 248 255 261 265 265 280 293 293 298 305 302 303 311 317 310 225 211 169 161 164 168 170 174 173 173 172 171 171 170 169 171 172 171 171 170 170 171 173 174 174 173 165 170 170 172 175 176 172 168 165 163 162 160 162 165 165 164 163 161 159 161 162 164 166
134 284 286 348 343 344 308 326 337 324 308 292 292 271 214 206 212 214 219 235 248 270 267 255 257 272 255 245 296 296 300 317 321 320 316 308 314 245 200 178 170 171 172 176 175 174 174 173 172 169 169 171 173 173 172 172 172 171 172 173 174 175 171 169 171 173 172 174 172 168 163 161 163 161 164 165 166 165 163 161 159 160 162 160 163 165
136 262 46 270 348 281 187 194 216 210 243 243 260 315 230 209 213 220 214 219 221 240 251 265 277 273 278 328 278 294 324 327 315 312 310 307 327 317 208 182 178 172 175 173 172 173 171 172 171 171 173 175 175 173 171 170 171 169 174 174 176 173 169 171 172 173 172 169 167 165 163 162 161 163 164 165 168 166 161 158 159 161 162 159 162 165
187 172 304 2 342 297 296 291 317 323 14 9 288 222 210 214 218 221 228 225 224 212 202 217 237 239 268 279 317 320 307 315 318 313 303 309 320 344 278 201 176 177 176 172 171 172 173 174 176 177 178 176 175 174 175 170 168 174 174 174 172 164 170 172 172 169 167 167 165 165 163 161 162 164 166 169 167 164 160 161 163 161 161 167 167 159
147 138 229 145 288 286 328 325 344 49 60 237 226 171 182 206 203 219 236 233 235 181 220 197 216 191 180 259 318 275 311 304 298 301 297 289 308 316 330 355 334 193 178 174 174 173 177 179 180 180 177 175 176 176 170 169 172 173 170 166 161 165 170 167 168 168 167 165 165 163 163 163 164 166 168 166 165 165 166 168 169 164 165 162 161 169
165 118 238 145 249 296 339 355 31 32 241 236 310 326 320 294 281 235 249 258 272 265 255 248 208 183 212 207 204 282 289 281 283 291 286 277 245 277 293 301 94 74 47 198 181 176 176 177 177 172 171 172 167 161 159 168 167 159 159 161 162 165 165 167 165 167 165 164 163 161 163 165 165 165 166 165 165 168 172 173 164 164 167 168 172 175
161 157 173 335 216 301 31 47 16 258 248 300 315 340 355 11 7 360 357 307 84 326 283 223 192 189 173 152 45 294 283 264 268 268 272 285 274 202 225 245 243 311 154 168 181 177 173 174 172 171 173 166 160 163 168 168 164 163 165 162 160 162 164 164 165 167 164 163 163 164 164 164 164 163 163 164 167 171 174 175 168 168 167 167 171 174
131 86 105 289 166 305 275 197 245 292 327 336 31 3 21 344 321 16 225 283 314 356 9 338 270 219 188 149 174 239 247 267 268 270 259 252 266 250 194 210 199 182 196 192 174 183 179 173 175 174 162 159 164 165 170 163 163 164 160 161 163 162 163 163 167 169 168 165 165 166 165 163 162 163 165 166 168 175 176 174 170 165 163 167 170 168
149 215 206 85 300 110 5 324 330 12 15 283 99 139 141 255 264 252 253 294 316 359 15 6 353 352 337 298 193 220 210 58 283 263 253 237 231 222 207 225 205 182 173 178 186 192 193 178 167 162 167 166 168 168 164 162 163 164 166 166 163 162 165 168 170 168 168 167 166 165 165 164 162 164 167 169 172 175 177 175 171 168 170 172 170 173
7 82 101 80 348 35 29 312 312 274 246 213 273 100 221 287 298 335 191 251 314 351 345 352 296 281 298 282 278 310 219 224 241 247 258 235 217 215 195 210 211 194 190 183 180 184 184 177 169 168 168 168 167 167 163 164 163 164 169 167 166 167 167 174 170 167 170 168 165 165 162 163 163 165 168 165 168 178 178 176 175 167 169 171 169 172
356 349 359 21 8 217 146 264 266 213 242 282 334 337 325 296 296 149 209 259 316 344 330 333 320 319 323 289 292 286 200 228 251 254 246 238 195 192 191 198 209 203 194 189 189 183 178 170 159 162 166 171 176 169 164 163 164 168 169 169 166 172 175 173 169 165 160 162 167 163 159 164 175 173 167 172 178 176 175 165 155 162 165 164 167 164
354 332 21 336 336 302 235 267 279 292 292 8 339 327 320 300 315 237 206 261 327 320 313 318 316 310 305 317 324 268 233 226 254 273 303 303 327 155 197 199 198 197 190 185 188 183 173 170 168 173 176 178 170 165 164 164 165 169 170 169 171 178 175 164 153 153 158 159 156 160 164 162 168 169 171 168 167 167 163 166 164 159 161 163 164 164
346 301 285 354 6 322 297 261 244 256 202 3 342 338 311 357 30 285 264 300 304 302 302 306 294 289 307 309 290 264 282 291 275 292 314 303 298 226 156 178 199 211 204 192 187 178 172 174 177 177 176 170 166 167 165 165 167 169 168 171 178 174 156 152 153 154 156 160 164 161 164 168 167 157 161 163 150 156 166 168 164 164 166 168 168 170
303 329 320 324 288 234 329 284 328 360 273 7 339 341 79 68 211 241 301 305 312 300 298 301 295 294 321 325 320 313 319 311 341 18 42 72 56 11 353 354 186 188 187 194 195 188 169 173 179 177 174 169 167 165 166 165 165 167 167 174 172 155 150 149 152 156 160 162 163 167 169 163 159 160 159 158 159 158 161 164 166 169 165 161 155 155
233 5 327 299 276 316 337 337 333 231 277 311 350 310 316 302 287 294 307 304 297 294 293 303 300 300 318 323 321 332 332 312 320 50 60 42 45 49 59 64 41 0 320 201 182 182 175 173 175 174 170 166 166 166 165 164 163 164 168 170 151 145 145 148 152 155 159 160 160 160 158 158 159 158 155 154 157 160 160 167 170 166 164 158 156 155
166 205 171 267 290 325 291 264 255 269 280 294 288 275 278 282 276 275 288 284 294 296 294 300 301 312 318 321 328 346 336 311 306 6 96 132 84 80 73 57 46 53 27 331 242 180 177 173 170 166 165 167 165 165 164 163 158 159 161 152 144 145 147 150 151 155 157 160 163 167 160 154 155 157 153 159 161 161 164 165 158 153 154 155 156 156
285 160 97 245 260 239 246 244 264 290 292 287 283 281 292 299 292 281 293 307 302 289 294 290 303 307 309 321 335 5 327 291 299 341 13 67 134 124 92 64 64 62 54 34 345 293 190 167 162 159 161 165 166 163 163 161 156 156 151 142 144 146 142 143 145 149 152 155 160 158 138 145 147 148 153 158 168 166 164 160 161 158 154 151 153 158
294 193 108 242 273 353 308 337 291 271 285 283 293 295 281 285 294 295 301 291 299 312 314 310 310 308 308 315 318 311 284 277 282 331 2 18 28 37 54 73 72 63 77 75 39 345 296 166 158 162 160 162 168 163 160 155 150 139 134 140 142 143 145 143 142 140 141 151 145 131 145 151 156 138 134 145 140 143 149 155 158 153 153 157 158 161
307 152 275 247 290 256 278 295 292 285 274 287 289 298 297 300 299 307 298 285 308 307 296 303 319 315 328 327 320 287 261 257 231 110 54 59 58 54 59 65 71 72 62 68 61 42 9 352 323 151 144 139 128 113 104 116 137 145 140 142 146 146 146 147 149 151 154 154 148 150 153 152 141 140 143 148 148 142 136 151 162 160 163 166 168 165
282 305 279 306 302 273 277 273 276 320 315 275 38 303 287 285 299 313 318 322 327 338 328 314 299 303 327 327 326 293 268 263 220 147 113 90 67 66 86 84 78 77 77 75 65 77 45 34 59 73 90 97 110 133 145 163 168 152 140 140 140 141 141 140 141 140 137 138 141 142 140 139 146 146 144 144 148 156 164 169 173 172 180 190 176 180
304 291 286 6 311 308 300 309 332 350 316 308 298 286 298 310 314 318 325 324 336 339 333 328 319 328 336 329 308 281 261 242 250 88 88 78 79 93 99 96 90 87 79 75 75 67 91 104 106 91 6 1 109 114 119 144 152 147 139 138 138 135 131 130 132 133 140 142 141 135 132 134 139 144 147 150 152 140 86 32 76 140 166 171 169 151
293 285 319 303 297 294 303 304 298 237 267 260 275 249 277 301 312 319 315 316 322 328 330 330 320 322 311 289 273 267 273 280 20 82 80 68 79 82 78 82 88 100 105 102 90 77 81 123 123 93 120 118 111 115 128 135 134 131 131 135 135 133 133 133 132 135 137 141 150 154 151 148 148 152 150 150 145 140 132 114 39 65 129 143 154 157